CW5066 Weather Reports


Display with metric or nautical units.
time (UTC)temp
F
wind
direction
speed
MPH
gust
MPH
rain 1hr
in
rain 24hr
in
rain mn
in
humidity
%
barometer
mb
20210917220517 63 270 7.0 14.0 0.00 0.00 0.00 30 1030.1
20210917215516 63 270 6.0 11.0 0.00 0.00 0.00 32 1030.3
20210917214517 64 225 5.0 12.0 0.00 0.00 0.00 29 1030.8
20210917213517 63 270 7.0 13.0 0.00 0.00 0.00 31 1030.0
20210917212517 64 270 8.0 15.0 0.00 0.00 0.00 31 1030.4
20210917211517 64 225 6.0 14.0 0.00 0.00 0.00 29 1030.3
20210917210517 64 225 4.0 13.0 0.00 0.00 0.00 31 1030.3
20210917205516 63 248 5.0 10.0 0.00 0.00 0.00 33 1029.7
20210917204516 62 270 7.0 16.0 0.00 0.00 0.00 31 1030.2
20210917203517 63 270 5.0 13.0 0.00 0.00 0.00 32 1030.3
20210917202517 64 248 5.0 13.0 0.00 0.00 0.00 32 1031.0
20210917201517 63 248 5.0 14.0 0.00 0.00 0.00 32 1031.1
20210917200516 64 248 4.0 10.0 0.00 0.00 0.00 31 1031.7
20210917195516 63 293 5.0 11.0 0.00 0.00 0.00 32 1032.3
20210917194516 63 270 5.0 13.0 0.00 0.00 0.00 33 1032.3
20210917193516 62 248 6.0 14.0 0.00 0.00 0.00 34 1033.0
20210917192516 63 225 7.0 13.0 0.00 0.00 0.00 34 1033.8
20210917191516 64 270 7.0 13.0 0.00 0.00 0.00 34 1034.9
20210917190516 64 270 8.0 17.0 0.00 0.00 0.00 33 1034.9
20210917185516 64 293 5.0 16.0 0.00 0.00 0.00 32 1034.9
20210917184516 65 225 4.0 7.0 0.00 0.00 0.00 33 1035.5
20210917183516 63 293 3.0 11.0 0.00 0.00 0.00 39 1035.2
20210917182517 64 293 3.0 9.0 0.00 0.00 0.00 35 1035.7
20210917181516 65 270 2.0 10.0 0.00 0.00 0.00 34 1035.7
20210917180516 64 225 1.0 7.0 0.00 0.00 0.00 34 1035.8
20210917175516 63 225 2.0 9.0 0.00 0.00 0.00 35 1035.3
20210917174516 63 225 3.0 8.0 0.00 0.00 0.00 33 1035.2
20210917173516 62 225 3.0 6.0 0.00 0.00 0.00 34 1035.3
20210917172515 61 180 2.0 7.0 0.00 0.00 0.00 34 1035.1
20210917171516 60 203 2.0 5.0 0.00 0.00 0.00 38 1034.6
20210917170516 56 315 2.0 9.0 0.00 0.00 0.00 45 1033.2
20210917165516 55 315 4.0 9.0 0.00 0.00 0.00 48 1033.1
20210917164516 53 293 3.0 7.0 0.00 0.00 0.00 55 1032.7
20210917163516 52 315 2.0 4.0 0.00 0.00 0.00 59 1032.7
20210917162517 51 293 1.0 2.0 0.00 0.00 0.00 56 1031.7
20210917161516 50 338 1.0 3.0 0.00 0.00 0.00 61 1031.5
20210917160516 50 0.0 1.0 0.00 0.00 0.00 58 1031.2
20210917155516 49 0.0 0.0 0.00 0.00 0.00 57 1031.0
20210917154517 48 293 1.0 3.0 0.00 0.00 0.00 60 1030.4
20210917153515 47 293 1.0 2.0 0.00 0.00 0.00 59 1030.3
20210917152516 46 0.0 1.0 0.00 0.00 0.00 62 1029.6
20210917151515 44 0.0 2.0 0.00 0.00 0.00 68 1028.9
20210917150515 43 293 1.0 2.0 0.00 0.00 0.00 74 1028.8
20210917145515 42 0.0 0.0 0.00 0.00 0.00 75 1028.0
20210917144516 41 0.0 2.0 0.00 0.00 0.00 76 1027.9
20210917143516 40 0.0 0.0 0.00 0.00 0.00 76 1027.2
20210917142516 40 0.0 0.0 0.00 0.00 0.00 76 1027.1
20210917141516 40 293 1.0 3.0 0.00 0.00 0.00 77 1027.0
20210917140515 39 315 2.0 3.0 0.00 0.00 0.00 80 1026.9
20210917135515 39 293 2.0 4.0 0.00 0.00 0.00 82 1026.7
20210917134516 39 315 2.0 4.0 0.00 0.00 0.00 80 1026.6
20210917133516 40 293 3.0 4.0 0.00 0.00 0.00 80 1027.1
20210917132516 40 293 3.0 4.0 0.00 0.00 0.00 82 1027.0
20210917131515 40 315 1.0 4.0 0.00 0.00 0.00 81 1027.1
20210917130516 40 315 3.0 4.0 0.00 0.00 0.00 83 1027.6
20210917125515 40 0.0 0.0 0.00 0.00 0.00 83 1027.4
20210917124515 39 293 1.0 4.0 0.00 0.00 0.00 83 1027.9
20210917123515 39 293 3.0 4.0 0.00 0.00 0.00 84 1027.7
20210917122516 39 315 4.0 5.0 0.00 0.00 0.00 86 1027.5
20210917121516 38 315 2.0 3.0 0.00 0.00 0.00 84 1027.3
20210917120516 38 315 2.0 3.0 0.00 0.00 0.00 83 1027.0
20210917115515 39 315 2.0 4.0 0.00 0.00 0.00 83 1027.7
20210917114516 39 293 3.0 4.0 0.00 0.00 0.00 84 1027.5
20210917113516 39 0.0 0.0 0.00 0.00 0.00 87 1027.4
20210917112515 40 0.0 0.0 0.00 0.00 0.00 86 1028.0
20210917111515 40 0.0 0.0 0.00 0.00 0.00 85 1027.8
20210917110516 40 225 2.0 3.0 0.00 0.00 0.00 85 1027.6
20210917105516 41 0.0 1.0 0.00 0.00 0.00 83 1027.4
20210917104516 41 180 1.0 4.0 0.00 0.00 0.00 82 1028.1
20210917103515 41 203 2.0 3.0 0.00 0.00 0.00 81 1027.5
20210917102516 41 0.0 2.0 0.00 0.00 0.00 82 1027.4
20210917101515 41 180 1.0 3.0 0.00 0.00 0.00 81 1027.3
20210917100516 42 0.0 0.0 0.00 0.00 0.00 81 1026.6
20210917095516 42 180 2.0 3.0 0.00 0.00 0.00 80 1027.1
20210917094517 42 203 3.0 5.0 0.00 0.00 0.00 79 1026.5
20210917093518 42 158 3.0 5.0 0.00 0.00 0.00 78 1026.9
20210917092518 43 180 4.0 7.0 0.00 0.00 0.00 77 1026.8
20210917091518 43 158 2.0 5.0 0.00 0.00 0.00 76 1026.6
20210917090517 43 135 4.0 7.0 0.00 0.00 0.00 76 1026.4
20210917085518 44 135 7.0 13.0 0.00 0.00 0.00 75 1026.4
20210917084519 44 135 6.0 15.0 0.00 0.00 0.00 74 1026.8
20210917083518 44 135 8.0 18.0 0.00 0.00 0.00 72 1026.8
20210917082517 45 135 7.0 13.0 0.00 0.00 0.00 68 1027.3
20210917081518 47 135 8.0 21.0 0.00 0.00 0.00 64 1027.2
20210917080517 48 158 6.0 12.0 0.00 0.00 0.00 59 1027.6
20210917075518 49 180 6.0 10.0 0.00 0.00 0.00 52 1027.6
20210917074519 50 158 7.0 16.0 0.00 0.00 0.00 48 1028.1
20210917073517 52 203 7.0 18.0 0.00 0.00 0.00 42 1028.4
20210917072517 54 203 5.0 13.0 0.00 0.00 0.00 33 1028.6
20210917071518 56 180 4.0 13.0 0.00 0.00 0.00 27 1028.3
20210917070518 56 68 6.0 16.0 0.00 0.00 0.00 27 1028.0
20210917065517 57 45 7.0 16.0 0.00 0.00 0.00 27 1027.8
20210917064518 57 45 6.0 15.0 0.00 0.00 0.00 25 1028.3
20210917063517 58 45 6.0 13.0 0.00 0.00 0.00 22 1028.2
20210917062515 58 45 6.0 11.0 0.00 0.00 0.00 21 1028.1
20210917061518 58 45 6.0 11.0 0.00 0.00 0.00 20 1028.0
20210917060518 58 45 5.0 11.0 0.00 0.00 0.00 20 1027.9
20210917055517 58 23 5.0 8.0 0.00 0.00 0.00 20 1027.1
20210917054517 59 23 5.0 13.0 0.00 0.00 0.00 21 1027.6
20210917053516 59 23 5.0 10.0 0.00 0.00 0.00 21 1027.5
20210917052517 59 45 7.0 14.0 0.00 0.00 0.00 22 1027.4
20210917051516 59 45 7.0 15.0 0.00 0.00 0.00 22 1026.7
20210917050517 60 23 7.0 13.0 0.00 0.00 0.00 21 1026.5
20210917045516 60 45 5.0 12.0 0.00 0.00 0.00 22 1026.5
20210917044517 60 0 7.0 16.0 0.00 0.00 0.00 23 1026.4
20210917043516 60 45 8.0 17.0 0.00 0.00 0.00 23 1026.4
20210917042517 60 45 7.0 13.0 0.00 0.00 0.00 23 1026.4
20210917041516 60 23 9.0 18.0 0.00 0.00 0.00 23 1026.3
20210917040516 61 0 8.0 18.0 0.00 0.00 0.00 23 1026.1
20210917035516 61 23 7.0 15.0 0.00 0.00 0.00 24 1026.1
20210917034516 61 23 6.0 13.0 0.00 0.00 0.00 24 1025.9
20210917033516 61 23 8.0 17.0 0.00 0.00 0.00 25 1025.8
20210917032516 61 0 7.0 15.0 0.00 0.00 0.00 26 1025.2
20210917031516 61 23 5.0 10.0 0.00 0.00 0.00 26 1025.1
20210917030516 61 23 7.0 15.0 0.00 0.00 0.00 25 1025.2
20210917025517 61 23 8.0 18.0 0.00 0.00 0.00 25 1024.4
20210917024517 61 45 6.0 15.0 0.00 0.00 0.00 25 1024.5
20210917023516 61 23 5.0 11.0 0.00 0.00 0.00 26 1023.8
20210917022516 61 45 8.0 15.0 0.00 0.00 0.00 26 1023.5
20210917021517 61 23 6.0 12.0 0.00 0.00 0.00 25 1023.2
20210917020516 61 23 5.0 16.0 0.00 0.00 0.00 25 1022.5
20210917015516 62 45 5.0 13.0 0.00 0.00 0.00 24 1023.1
20210917014516 62 23 5.0 11.0 0.00 0.00 0.00 23 1022.9
20210917013516 62 0 4.0 9.0 0.00 0.00 0.00 23 1022.8
20210917012517 63 0 4.0 12.0 0.00 0.00 0.00 22 1022.4
20210917011517 63 338 8.0 14.0 0.00 0.00 0.00 21 1022.3
20210917010517 64 338 6.0 12.0 0.00 0.00 0.00 21 1022.3
20210917005516 65 0 5.0 10.0 0.00 0.00 0.00 20 1022.9
20210917004516 67 23 3.0 8.0 0.00 0.00 0.00 19 1023.4
20210917003516 67 0 5.0 10.0 0.00 0.00 0.00 19 1023.4
20210917002517 68 0 5.0 12.0 0.00 0.00 0.00 19 1024.0
20210917001517 68 0 6.0 13.0 0.00 0.00 0.00 18 1023.9
20210917000517 69 338 8.0 13.0 0.00 0.00 0.00 17 1023.5
20210916235516 69 338 7.0 12.0 0.00 0.00 0.00 16 1023.8
20210916234516 69 338 6.0 12.0 0.00 0.00 0.00 15 1022.9
20210916233516 70 45 7.0 12.0 0.00 0.00 0.00 18 1023.7
20210916232516 70 45 7.0 14.0 0.00 0.00 0.00 17 1023.6
20210916231515 70 23 7.0 16.0 0.00 0.00 0.00 17 1023.4
20210916230516 70 338 9.0 18.0 0.00 0.00 0.00 16 1023.2
20210916225517 71 0 8.0 16.0 0.00 0.00 0.00 16 1023.1
20210916224516 71 23 6.0 15.0 0.00 0.00 0.00 17 1023.2
20210916223517 70 0 10.0 18.0 0.00 0.00 0.00 17 1023.1
20210916222517 70 45 11.0 17.0 0.00 0.00 0.00 18 1023.1
20210916221517 69 0 3.0 15.0 0.00 0.00 0.00 18 1022.2